Printer-friendly version

IAU Minor Planet Center

Minor Planet Center

MPEC 2006-M40 : 2000 SB1

The following Minor Planet Electronic Circular may be linked-to from your own Web pages, but must not otherwise be redistributed electronically.


Read MPEC 2006-M39 Read MPEC 2006-M41


M.P.E.C. 2006-M40                                Issued 2006 June 25, 04:18 UT

     The Minor Planet Electronic Circulars contain information on unusual
         minor planets and routine data on comets.  They are published
   on behalf of Commission 20 of the International Astronomical Union by the
          Minor Planet Center, Smithsonian Astrophysical Observatory,
                          Cambridge, MA 02138, U.S.A.

                  Supported in part by the Brinson Foundation
                  Supported in part by the TABASGO Foundation
             Prepared using the Tamkin Foundation Computer Network

                              MPC@CFA.HARVARD.EDU
          URL http://cfa-www.harvard.edu/iau/mpc.html  ISSN 1523-6714

                                   2000 SB1

                           Revision to MPEC 2000-U22

Additional Observations:
     K00S01B  C2006 06 24.12279 23 02 55.28 +16 27 46.0          19.5 V EM040941
     K00S01B  C2006 06 24.12732 23 02 55.45 +16 27 51.0          19.3 V EM040941
     K00S01B  C2006 06 24.13185 23 02 55.63 +16 27 55.6          19.4 V EM040941
     K00S01B  C2006 06 25.11161 23 03 36.89 +16 45 03.6          19.7 V EM040941
     K00S01B  C2006 06 25.11240 23 03 36.92 +16 45 04.6          19.7 V EM040941
     K00S01B  C2006 06 25.11398 23 03 36.99 +16 45 05.9          19.5 V EM040941
     K00S01B  C2006 06 25.12031 23 03 37.24 +16 45 12.3          19.6 V EM040941

Observer details:
941 Observatorio Pla D'Arguines.  Observers R. Ferrando, M. Ferrando.
    Measurer R. Ferrando.  0.36-m f/10 Schmidt-Cassegrain + CCD.

First and last observations above in comparison with prediction:
Residuals in seconds of arc, reference and Delta-T
060624 941  1.1+  0.2+    060625 941  0.7+  0.5+    MPO 10977   -0.00055 day

Orbital elements:
2000 SB1
Epoch 2006 Mar. 6.0 TT = JDT 2453800.5                  MPC
M 309.57179              (2000.0)            P               Q
n   0.16106208     Peri.  145.22705     +0.42357468     -0.82495671
a   3.3455987      Node   277.03999     +0.72181541     +0.55696665
e   0.5398003      Incl.   22.15105     +0.54732714     -0.09609670
P   6.12           H   15.1           G   0.15           U   1
Residuals in seconds of arc
000918 704  0.3+  0.4+    001026 402  0.1+  0.7-    001205 704  0.3+  0.7-
000918 704  0.1+  0.9+    001105 349  1.5-  0.3+    001205 704  0.2+  0.6-
000918 704  0.4+  0.6+    001105 349  1.0-  0.4+    001205 704  0.2+  0.8-
000920 704  0.6+  0.0     001105 349  1.0-  0.5+    001205 704  0.6+  0.6-
000920 704  0.1-  0.6+    001109 704  0.2+  0.2-    001205 355  0.2+  0.2-
000920 704  0.3+  1.2+    001109 704  0.4-  0.6-    001205 355  0.0   0.2-
000920 704  0.2+  0.2-    001109 704  0.2-  1.3-    001205 355  0.2-  0.2-
000920 704  0.1+  0.2+    001109 704  0.6-  1.1-    001205 355  0.2-  0.0
001017 704  0.1-  1.3-    001109 704  1.0-  1.6-    001207 704  0.1-  0.7-
001017 704  0.0   0.4+    001116 704  0.8-  1.6-    001207 704  0.2-  0.0
001017 704  0.4+  1.8+    001116 704  0.1-  0.7-    001207 704  0.2+  0.2-
001018 704  0.3-  1.7-    001116 704  1.0-  2.6-    001207 704  0.6+  0.1+
001018 704  0.1-  1.3-    001116 704  0.7-  1.4-    001207 704  0.2+  0.2+
001018 704  0.6+  1.7-    001116 183  0.4-  1.6+    001211 610  0.4-  0.2+
001018 704  0.7+  0.7+    001116 183  0.5-  1.3+    001211 610  0.3-  0.1+
001018 704  0.6+  0.2-    001116 183  0.4-  1.8+    001211 610  0.3-  0.2+
001018 704  1.0+  0.3+    001116 183  0.3-  1.9+    001211 610  0.3-  0.1+
001018 704  0.4+  0.7+    001116 183  0.4-  1.8+    001211 610  0.2-  0.2+
001018 704  1.1+  0.5+    001116 183  0.8-  0.7+    001215 402  0.3-  0.5-
001018 704  0.1-  1.0+    001116 183  0.8-  1.2+    001215 402  0.2-  0.4-
001019 046  0.1+  0.0     001116 183  0.3-  0.8+    001215 402  0.0   0.3-
001019 046  0.1-  0.1-    001117 704  0.3-  0.1+    001217 704  0.4-  0.1+
001019 046  0.1+  0.1-    001117 704  0.4-  0.3-    001217 704  0.5-  0.0
001019 046  0.5+  0.1-    001117 704  0.4-  0.5-    001217 704  0.4-  0.1-
001019 046  0.1+  0.1-    001117 704  0.3-  0.6+    001217 704  0.2-  0.0
001021 912  0.2-  0.1+    001117 704  0.0   0.3-    001217 704  0.0   0.2+
001021 912  0.2+  0.3+    001117 183  0.4-  0.3-    001223 349  0.2+  0.6-
001021 912  0.2-  0.1+    001117 183  0.5-  0.1-    001223 349  0.0   0.3-
001021 746  0.2-  0.4-    001117 183  0.5-  0.1-    001223 349  0.4+  0.1+
001021 746  0.2-  0.8-    001117 183  0.5-  0.3-    001225 699  0.3+  0.1-
001021 746  0.2+  0.7-    001117 183  0.5-  0.0     001225 699  0.3+  0.4-
001021 746  0.5+  0.1-    001117 183  0.0   0.4-    001225 699  0.4-  0.5+
001021 746  0.9-  0.1-    001118 349  0.3-  0.4-    001225 699  0.3+  0.6-
001021 746  0.6+  0.3-    001118 349  0.1+  1.0-    001225 071  0.5+  0.7-
001021 746  0.1-  0.1-    001118 349  0.1-  1.1-    001225 071  0.3+  1.9-
001021 746  0.3-  0.1-    001119 642  0.8-  0.8-    001225 071  0.7+  1.0-
001021 746  0.0   0.1+    001119 642  0.3+  0.1-    001227 699  0.5-  0.6+
001021 746  0.2-  0.2-    001119 642  0.5-  0.1-    001227 699  0.4-  0.5+
001021 746  0.3-  0.0     001119 642  0.2+  1.7-    001227 699  0.3-  0.6+
001021 746  0.0   0.1-    001119 642  0.9-  0.6-    001227 699  0.4-  1.1+
001021 746  0.1+  0.2+    001121 071  0.3-  0.5-    010101 355  0.1-  0.1-
001021 746  0.5+  0.0     001121 071  0.3-  0.6-    010101 355  0.1-  0.0
001021 746  0.5+  0.1+    001121 071  0.4-  0.4-    010101 355  0.2-  0.2+
001021 746  0.3+  0.1+    001121 071  0.5-  0.6-    010101 355  0.1+  0.2-
001021 746  0.1-  0.2+    001121 726  0.4-  1.1-    010116 348  0.5-  0.4-
001021 746  0.4+  0.1+    001121 726  0.8-  0.6-    010116 348  0.3+  0.4-
001021 151  0.2-  0.1-    001121 726  0.3-  1.2-    010119 704  0.2+  0.2+
001021 151  0.1-  0.1+    001121 726  0.8-  0.8-    010119 704  0.2+  0.4+
001021 151  0.2-  0.1-    001121 726  0.4-  1.2-    010119 704  0.2+  0.5+
001021 151  0.4-  0.0     001121 726  0.7-  0.0     010119 704  0.4+  0.4+
001021 151  0.1-  0.1-    001125 726  1.6+  0.3-    010119 704  0.3+  0.3+
001022 912  2.2-  0.1+    001125 726  1.0+  0.8-    010121 699  0.4-  0.1-
001022 912  0.4-  0.4+    001125 726  1.3+  0.5-    010121 699  0.6-  0.0
001022 912 (1.0+  3.4+)   001125 726  0.8+  0.2-    010121 699  0.5-  0.0
001022 557  0.2-  0.3-    001125 726  1.2+  0.1-    010121 699  0.4-  0.1-
001022 557  0.1-  0.2-    001128 726  0.1-  0.1-    010126 071  0.2+  0.7-
001022 587  0.0   0.3-    001128 726  1.0-  1.2+    010126 071  0.6+  0.3-
001022 557  0.2-  0.2-    001128 726  0.6+  1.5-    010126 071  0.3-  0.9-
001022 587  0.1-  0.1-    001128 726  0.3-  0.2+    010202 711  0.4+  0.4-
001023 118  0.2+  0.0     001128 726  0.3-  2.1+    010202 711  0.1+  0.0
001023 118  0.1+  0.1+    001129 610 (3.3+  5.5+)   010202 711  0.2+  0.3-
001023 118  0.3+  0.0     001129 610 (3.3+  5.1+)   010210 118  0.3+  0.2-
001023 670  0.1-  0.2-    001129 610 (3.2+  4.8+)   010210 118  0.0   0.1-
001023 670  0.1-  0.4-    001129 610 (3.0+  4.6+)   010219 704  0.8-  0.1+
001023 118  0.1+  0.0     001129 610 (2.9+  4.3+)   010219 704  0.1-  0.0
001023 118  0.1+  0.0     001201 610  0.0   0.3-    010219 704  0.5-  0.1-
001024 046  0.0   0.1-    001201 610  0.1+  0.4-    010219 704  0.7+  0.2+
001024 046  0.1+  0.1-    001201 610  0.1+  0.3-    010220 704  0.1-  0.4+
001024 046  0.2+  0.0     001201 610  0.0   0.3-    010220 704  0.2-  0.5+
001024 046  0.0   0.0     001201 610  0.0   0.2-    010220 704  0.1-  0.6+
001024 046  0.0   0.1-    001202 726  0.5-  0.2-    010220 704  0.0   0.5+
001024 046  0.1+  0.0     001202 726  0.0   0.4-    010220 704  0.6+  0.6+
001024 850  0.2-  0.3-    001202 726  0.4-  0.2-    060624 941  0.3+  0.3-
001024 850  0.1-  0.3-    001202 726  0.1+  0.3-    060624 941  0.0   0.1-
001024 850  0.2-  0.2-    001202 726  0.3-  0.2-    060624 941  0.1-  0.2-
001024 670  0.0   0.2-    001202 726  0.0   0.4-    060625 941  0.1-  0.4+
001024 670  0.2+  0.1-    001204 715  0.0   0.4-    060625 941  0.2-  0.6+
001026 402  0.0   0.6-    001204 715  0.4-  0.9-    060625 941  0.1-  0.2+
001026 402  0.2+  0.6-    001205 704  0.2-  0.6-    060625 941  0.2-  0.0

Ephemeris:
2000 SB1                 a,e,i = 3.35, 0.54, 22                  q = 1.5396
Date    TT    R. A. (2000) Decl.     Delta      r     Elong.  Phase     V
2006 06 24    23 02.83   +16 25.6    2.061    2.424    98.1    24.5    19.7
2006 07 04    23 09.20   +19 23.2    1.899    2.364   104.2    24.6    19.5
2006 07 14    23 13.92   +22 26.4    1.745    2.303   110.2    24.5    19.3
2006 07 24    23 16.60   +25 32.9    1.601    2.243   116.2    24.0    19.0
2006 08 03    23 16.82   +28 38.3    1.469    2.183   121.9    23.2    18.7
2006 08 13    23 14.21   +31 36.2    1.352    2.124   127.3    22.3    18.5
2006 08 23    23 08.52   +34 17.6    1.249    2.066   131.8    21.4    18.2
2006 09 02    22 59.87   +36 30.8    1.162    2.008   135.2    20.7    18.0
2006 09 12    22 49.02   +38 04.3    1.091    1.952   137.0    20.6    17.8
2006 09 22    22 37.42   +38 49.1    1.037    1.898   136.8    21.2    17.6
2006 10 02    22 27.08   +38 42.4    0.998    1.845   134.8    22.7    17.5
2006 10 12    22 20.02   +37 50.2    0.973    1.795   131.3    24.7    17.5
2006 10 22    22 17.72   +36 23.8    0.960    1.748   126.8    27.1    17.4
2006 11 01    22 20.95   +34 37.5    0.956    1.705   122.0    29.6    17.4
2006 11 11    22 29.79   +32 44.6    0.962    1.665   117.1    32.0    17.5
2006 11 21    22 43.89   +30 54.5    0.975    1.630   112.3    34.1    17.5
2006 12 01    23 02.70   +29 13.9    0.995    1.600   107.8    35.9    17.6
2006 12 11    23 25.52   +27 45.7    1.022    1.576   103.5    37.4    17.6
2006 12 21    23 51.61   +26 30.5    1.056    1.558    99.5    38.5    17.7
2006 12 31    00 20.27   +25 27.5    1.099    1.546    95.7    39.3    17.8
2007 01 10    00 50.72   +24 34.6    1.150    1.540    92.1    39.6    17.9
2007 01 20    01 22.30   +23 49.2    1.210    1.541    88.6    39.7    18.0
2007 01 30    01 54.42   +23 08.8    1.281    1.549    85.2    39.3    18.2
2007 02 09    02 26.54   +22 30.8    1.360    1.564    81.9    38.6    18.3
2007 02 19    02 58.29   +21 53.1    1.449    1.585    78.6    37.7    18.4
2007 03 01    03 29.41   +21 14.1    1.546    1.611    75.4    36.5    18.6
2007 03 11    03 59.67   +20 32.0    1.650    1.643    72.1    35.1    18.7
2007 03 21    04 28.99   +19 45.8    1.761    1.680    68.8    33.5    18.9
2007 03 31    04 57.31   +18 54.7    1.878    1.721    65.4    31.8    19.0
2007 04 10    05 24.60   +17 58.0    1.998    1.766    62.0    30.1    19.1

Gareth V. Williams           (C) Copyright 2006 MPC           M.P.E.C. 2006-M40

Read MPEC 2006-M39 Read MPEC 2006-M41


Our Web policy. Index to the CBAT/MPC/ICQ pages.


Valid HTML 4.01!